User: anonymous   Login
Location: Unspecified
(0.0000°N, 0.0000°E)
Time: 06:27:07
(UTC+00:00)
Language:

NOSS 2-1 (D) - Orbit

View from above orbital plane
View from above orbital plane
View from above satellite
View from above satellite

Ground track
Ground track

The orbit data is extracted from the following two-line orbital elements,

1 20692U 90050D   18247.80305241 0.00000200  00000-0  41708-4 0    07
2 20692  63.3310 120.7875 0825581  37.1682 322.8318 13.41827941    00
Epoch (UTC): 04 September 2018 19:16:23
Eccentricity: 0.0825581
inclination: 63.3310°
perigee height: 485 km
apogee height: 1720 km
right ascension of ascending node: 120.7875°
argument of perigee: 37.1682°
revolutions per day: 13.41827941
mean anomaly at epoch: 322.8318°
orbit number at epoch: 0

The dashed part of the orbit path shows where the satellite is in the earth's shadow,  

DLR